[ hide orbit diagram ]
For accurate long-term ephemerides, please instead use our Horizons system.This orbit viewer was implemented using two-body methods, and hence should not be used for determining accurate long-term trajectories (over several years or decades) or planetary encounter circumstances.
Orbital Elements at Epoch 2459000.5 (2020-May-31.0) TDB
Reference: JPL 37 (heliocentric ecliptic J2000)
Element | Value | Uncertainty (1-sigma) | Units |
e | .05668658667843297 | 3.0263e-08 | |
a | 2.561063790371713 | 9.7882e-09 | au |
q | 2.415885825829811 | 8.0586e-08 | au |
i | 15.48555785749278 | 5.3918e-06 | deg |
node | 27.91550760711344 | 1.2154e-05 | deg |
peri | 86.27635317154679 | 7.0217e-05 | deg |
M | 58.48873586398087 | 6.5192e-05 | deg |
tp | 2458757.280296402620 (2019-Sep-30.78029640) | 0.00027155 | TDB |
period | 1497.024888667125 4.10 | 8.5823e-06 2.35e-08 | d yr |
n | .2404769638269179 | 1.3786e-09 | deg/d |
Q | 2.706241754913616 | 1.0343e-08 | au |
|
| | Orbit Determination Parameters
Additional Information
|
[ show covariance matrix ]
Physical Parameter Table
Parameter |
Symbol |
Value |
Units |
Sigma |
Reference |
Notes |
absolute magnitude |
H |
11.0 |
|
n/a |
MPO452191 |
|
diameter |
diameter |
13.767 |
km |
0.540 |
urn:nasa:pds:neowise_diameters_albedos::2.0[mainbelt] (http://adsabs.harvard.edu/abs/2012ApJ...759L...8M) |
|
rotation period |
rot_per |
5.872 |
h |
n/a |
LCDB (Rev. 2020-October); Warner et al., 2009 |
Published Reference List: [Sada, P.V.; Canizales, E.D.; Armada, E.M. (2005) Minor Planet Bull. 32, 73-75.] [Kim, M.-J.; Choi, Y.-J.; Moon, H.-K.; Byun, Y.-I.; et al. (2014) Astron. J. 147, A56.] [Waszczak, A.; Chang, C.-K.; Ofeck, E.O.; Laher, F.; et al. (2015) Astron. J. 150, A75.] |
geometric albedo |
albedo |
0.446 |
|
0.058 |
urn:nasa:pds:neowise_diameters_albedos::2.0[mainbelt] (http://adsabs.harvard.edu/abs/2012ApJ...759L...8M) |
|
Tholen spectral type |
spec_T |
CSU |
|
n/a |
EAR-A-5-DDR-TAXONOMY-V4.0 |
used 2 color indices |
|
2151 Hadwiger (1977 VX) Discovered 1977-Nov-03 by Wild, P. at Zimmerwald |
Reference: DISCOVERY.DB | Last Updated: 2003-08-29 |
|
[ show close-approach data ]
Alternate Designations
1977 VX = 1932 UC = 1940 SB = 1963 FF = 1969 UU2 = 1973 SQ6 = 1975 EA |
|
|